Weather History for Cambridge, MD

Change the Weather History Date:

Thursday, April 25, 2013

  Actual Average (KESN) Record (KESN)
Temperature  
Mean Temperature 55 °F -  
Max Temperature 68 °F 68 °F 92 °F (1960)
Min Temperature 42 °F 46 °F 30 °F (1956)
Degree Days  
Heating Degree Days 10    
Growing Degree Days 5 (Base 50)    
Moisture  
Dew Point 37 °F    
Average Humidity 53    
Maximum Humidity 81    
Minimum Humidity 31    
Precipitation  
Precipitation 0.00 in - - ()
Sea Level Pressure  
Sea Level Pressure 30.19 in    
Wind  
Wind Speed 9 mph (NW)    
Max Wind Speed 20 mph    
Max Gust Speed 31 mph    
Visibility 10 miles    
Events      
Averages and records for this station are not official NWS values.
T = Trace of Precipitation, MM = Missing Value Source: NWS Daily Summary

Daily Weather History Graph

Daily Weather History Graph

Search for Another Location

Airport:

Trip Planner

Search our weather history database for the weather conditions in past years. The results will help you decide how hot, cold, wet, or windy it might be!

Date:

Astronomy

Apr. 25, 2013 Rise Set
Actual Time 6:14 AM EDT 7:50 PM EDT
Civil Twilight 5:46 AM EDT 8:18 PM EDT
Nautical Twilight 5:12 AM EDT 8:52 PM EDT
Astronomical Twilight 4:36 AM EDT 9:28 PM EDT
Moon 8:00 PM EDT (4/25) 5:55 AM EDT (4/25)
Length of Visible Light 14h 32m
Length of Day
13h 36m
Full, 100% of the Moon is Illuminated
Apr 25
Full
Apr 25
Full
May 2
Last Quarter
May 9
New
May 18
First Quarter

Hourly Weather History & Observations

Time (EDT) Temp. Windchill Dew Point Humidity Pressure Visibility Wind Dir Wind Speed Gust Speed Precip Events Conditions
12:03 AM 64.4 °F - 53.6 °F 68% 29.92 in 10.0 mi SSW 6.9 mph - N/A   Clear
12:23 AM 64.4 °F - 53.6 °F 68% 29.92 in 10.0 mi SW 5.8 mph - N/A   Mostly Cloudy
12:43 AM 64.4 °F - 51.8 °F 64% 29.92 in 10.0 mi SW 8.1 mph - N/A   Scattered Clouds
1:03 AM 68.0 °F - 53.6 °F 60% 29.93 in 10.0 mi WSW 6.9 mph - N/A   Clear
1:23 AM 64.4 °F - 53.6 °F 68% 29.97 in 10.0 mi NW 15.0 mph 21.9 mph N/A   Mostly Cloudy
1:43 AM 62.6 °F - 50.0 °F 63% 29.98 in 10.0 mi NW 15.0 mph 21.9 mph N/A   Overcast
2:03 AM 62.6 °F - 46.4 °F 55% 30.00 in 10.0 mi NW 15.0 mph 26.5 mph N/A   Overcast
2:23 AM 59.0 °F - 44.6 °F 59% 30.01 in 10.0 mi NW 17.3 mph 25.3 mph N/A   Overcast
3:04 AM 55.4 °F - 39.2 °F 54% 30.04 in 10.0 mi NW 13.8 mph 25.3 mph N/A   Overcast
3:24 AM 55.4 °F - 39.2 °F 54% 30.04 in 10.0 mi NW 13.8 mph 26.5 mph N/A   Overcast
3:44 AM 55.4 °F - 41.0 °F 58% 30.06 in 10.0 mi NNW 18.4 mph 25.3 mph N/A   Overcast
4:04 AM 53.6 °F - 39.2 °F 58% 30.07 in 10.0 mi NNW 18.4 mph 23.0 mph N/A   Overcast
4:24 AM 51.8 °F - 35.6 °F 54% 30.10 in 10.0 mi NNW 19.6 mph 31.1 mph N/A   Overcast
4:44 AM 51.8 °F - 39.2 °F 62% 30.12 in 10.0 mi NNW 12.7 mph 23.0 mph N/A   Overcast
5:04 AM 51.8 °F - 37.4 °F 58% 30.14 in 10.0 mi NW 16.1 mph 21.9 mph N/A   Overcast
5:24 AM 51.8 °F - 37.4 °F 58% 30.15 in 10.0 mi North 16.1 mph 21.9 mph N/A   Overcast
5:44 AM 50.0 °F - 37.4 °F 62% 30.16 in 10.0 mi North 10.4 mph 18.4 mph N/A   Overcast
6:04 AM 50.0 °F - 41.0 °F 71% 30.17 in 10.0 mi NNW 9.2 mph 16.1 mph N/A   Mostly Cloudy
6:24 AM 50.0 °F - 37.4 °F 62% 30.18 in 10.0 mi NNW 10.4 mph 16.1 mph N/A   Mostly Cloudy
6:44 AM 50.0 °F - 33.8 °F 54% 30.20 in 10.0 mi North 13.8 mph 26.5 mph N/A   Scattered Clouds
7:04 AM 50.0 °F - 33.8 °F 54% 30.21 in 10.0 mi NNW 18.4 mph 24.2 mph N/A   Clear
7:24 AM 50.0 °F - 33.8 °F 54% 30.23 in 10.0 mi NNW 13.8 mph 20.7 mph N/A   Clear
7:44 AM 50.0 °F - 32.0 °F 50% 30.23 in 10.0 mi NNW 12.7 mph 18.4 mph N/A   Clear
8:04 AM 50.0 °F - 32.0 °F 50% 30.23 in 10.0 mi NNW 13.8 mph 23.0 mph N/A   Clear
8:24 AM 50.0 °F - 32.0 °F 50% 30.24 in 10.0 mi NNW 12.7 mph 21.9 mph N/A   Clear
8:44 AM 50.0 °F - 32.0 °F 50% 30.24 in 10.0 mi NNW 11.5 mph 19.6 mph N/A   Clear
9:04 AM 50.0 °F - 32.0 °F 50% 30.24 in 10.0 mi North 13.8 mph 18.4 mph N/A   Clear
9:24 AM 51.8 °F - 33.8 °F 50% 30.25 in 10.0 mi NNW 15.0 mph 19.6 mph N/A   Clear
9:44 AM 50.0 °F - 32.0 °F 50% 30.25 in 10.0 mi NNW 11.5 mph 19.6 mph N/A   Clear
10:04 AM 51.8 °F - 32.0 °F 47% 30.26 in 10.0 mi NNW 11.5 mph 18.4 mph N/A   Clear
10:44 AM 51.8 °F - 32.0 °F 47% 30.27 in 10.0 mi NNW 11.5 mph 19.6 mph N/A   Clear
11:04 AM 51.8 °F - 32.0 °F 47% 30.27 in 10.0 mi North 11.5 mph 18.4 mph N/A   Clear
11:25 AM 53.6 °F - 33.8 °F 47% 30.27 in 10.0 mi NW 12.7 mph 17.3 mph N/A   Clear
11:45 AM 53.6 °F - 33.8 °F 47% 30.26 in 10.0 mi WNW 13.8 mph 18.4 mph N/A   Clear
12:05 PM 53.6 °F - 33.8 °F 47% 30.26 in 10.0 mi NW 12.7 mph - N/A   Clear
12:25 PM 53.6 °F - 33.8 °F 47% 30.26 in 10.0 mi NNW 11.5 mph - N/A   Clear
12:45 PM 53.6 °F - 32.0 °F 44% 30.25 in 10.0 mi NW 9.2 mph 16.1 mph N/A   Clear
1:05 PM 53.6 °F - 32.0 °F 44% 30.25 in 10.0 mi NW 11.5 mph 19.6 mph N/A   Clear
1:25 PM 53.6 °F - 32.0 °F 44% 30.25 in 10.0 mi NNW 10.4 mph 16.1 mph N/A   Clear
1:45 PM 55.4 °F - 32.0 °F 41% 30.25 in 10.0 mi NW 9.2 mph - N/A   Clear
2:05 PM 55.4 °F - 33.8 °F 44% 30.24 in 10.0 mi NNW 9.2 mph - N/A   Clear
2:25 PM 55.4 °F - 33.8 °F 44% 30.24 in 10.0 mi West 3.5 mph - N/A   Clear
2:45 PM 55.4 °F - 32.0 °F 41% 30.24 in 10.0 mi Calm Calm - N/A   Clear
3:05 PM 55.4 °F - 32.0 °F 41% 30.24 in 10.0 mi Calm Calm - N/A   Clear
3:25 PM 59.0 °F - 32.0 °F 36% 30.23 in 10.0 mi NNW 5.8 mph - N/A   Clear
3:45 PM 59.0 °F - 32.0 °F 36% 30.23 in 10.0 mi NNE 5.8 mph - N/A   Clear
4:05 PM 59.0 °F - 30.2 °F 34% 30.23 in 10.0 mi NNW 4.6 mph - N/A   Clear
4:25 PM 59.0 °F - 32.0 °F 36% 30.23 in 10.0 mi West 4.6 mph - N/A   Clear
4:45 PM 59.0 °F - 30.2 °F 34% 30.22 in 10.0 mi WNW 8.1 mph - N/A   Clear
5:05 PM 59.0 °F - 30.2 °F 34% 30.23 in 10.0 mi North 5.8 mph - N/A   Clear
5:25 PM 59.0 °F - 28.4 °F 31% 30.22 in 10.0 mi Calm Calm - N/A   Clear
5:45 PM 59.0 °F - 30.2 °F 34% 30.22 in 10.0 mi WNW 3.5 mph - N/A   Clear
6:05 PM 59.0 °F - 30.2 °F 34% 30.22 in 10.0 mi Calm Calm - N/A   Clear
6:25 PM 59.0 °F - 28.4 °F 31% 30.22 in 10.0 mi Calm Calm - N/A   Clear
6:45 PM 59.0 °F - 30.2 °F 34% 30.23 in 10.0 mi Calm Calm - N/A   Clear
7:05 PM 59.0 °F - 33.8 °F 39% 30.23 in 10.0 mi Calm Calm - N/A   Clear
7:45 PM 53.6 °F - 37.4 °F 54% 30.24 in 10.0 mi Calm Calm - N/A   Clear
8:06 PM 51.8 °F - 37.4 °F 58% 30.25 in 10.0 mi Calm Calm - N/A   Clear
8:26 PM 51.8 °F - 37.4 °F 58% 30.25 in 10.0 mi Calm Calm - N/A   Clear
8:46 PM 50.0 °F - 37.4 °F 62% 30.26 in 10.0 mi Calm Calm - N/A   Clear
9:06 PM 50.0 °F - 37.4 °F 62% 30.26 in 10.0 mi Calm Calm - N/A   Clear
9:26 PM 50.0 °F - 41.0 °F 71% 30.27 in 10.0 mi Calm Calm - N/A   Clear
9:46 PM 50.0 °F - 41.0 °F 71% 30.28 in 10.0 mi Calm Calm - N/A   Clear
10:06 PM 46.4 °F - 41.0 °F 81% 30.28 in 10.0 mi Calm Calm - N/A   Clear
10:26 PM 46.4 °F - 41.0 °F 81% 30.28 in 10.0 mi Calm Calm - N/A   Clear
10:46 PM 44.6 °F - 39.2 °F 81% 30.29 in 10.0 mi Calm Calm - N/A   Clear
11:06 PM 42.8 °F - 37.4 °F 81% 30.29 in 10.0 mi Calm Calm - N/A   Clear
11:26 PM 44.6 °F - 39.2 °F 81% 30.30 in 10.0 mi Calm Calm - N/A   Clear
11:46 PM 42.8 °F 41.1 °F 37.4 °F 81% 30.30 in 10.0 mi SE 3.5 mph - N/A   Clear